Location: Unspecified
(0.0000°N, 0.0000°E)
Time: 10:54:15
(UTC+01:00)

Haruka - Visible Passes

Search period start: 28 February 2017 00:00
Search period end: 10 March 2017 00:00
Orbit: 534 x 21224 km, 31.3° (Epoch: 27 February)

Date Brightness Start Highest point End Pass type
(mag) Time Alt. Az. Time Alt. Az. Time Alt. Az.
28 Feb 8.3 01:18:58 10° W 02:50:05 50° SSW 06:37:06 10° E visible
28 Feb 6.0 19:46:42 10° NNW 19:55:22 47° NE 21:06:16 10° ESE visible
01 Mar 8.7 02:35:31 10° WSW 07:15:45 60° SSE 07:48:03 10° E visible
01 Mar 6.3 20:52:57 10° NW 21:04:17 77° NE 00:31:59 10° ESE visible
02 Mar 8.2 04:02:25 10° WSW 08:38:03 74° SSE 08:56:49 10° ENE visible
02 Mar 7.1 22:00:05 10° WNW 22:16:37 79° SSW 02:45:35 10° ESE visible
03 Mar 7.4 05:58:05 10° WSW 09:51:49 84° NW 10:04:15 10° NE visible
03 Mar 7.8 23:08:26 10° WNW 23:35:47 63° SSW 04:17:31 10° ESE visible
05 Mar 8.1 00:18:39 10° W 01:12:24 53° SSW 05:36:08 10° E visible
05 Mar 5.9 18:50:00 10° NNW 18:57:00 33° NE 19:28:58 10° ESE visible
06 Mar 8.5 01:32:08 10° W 06:00:51 57° SSE 06:48:54 10° E visible
06 Mar 6.0 19:55:45 10° NW 20:04:45 64° NE 21:48:59 10° ESE visible
07 Mar 8.6 02:51:52 10° WSW 07:32:29 69° SSE 07:58:39 10° ENE visible
07 Mar 6.6 21:02:26 10° WNW 21:14:51 87° SW 01:14:41 10° ESE visible
08 Mar 7.8 04:25:14 10° WSW 08:50:19 87° SE 09:06:41 10° ENE visible
08 Mar 7.5 22:10:08 10° WNW 22:29:32 67° SSW 03:08:08 10° ESE visible
09 Mar 7.2 06:38:49 10° SW 10:02:01 68° NW 10:13:37 10° NE visible
